This demonstration page uses our WeatherBlox Daily Observations layout. Learn more.

Left ArrowRight Arrow

36.17497, -115.13722

Hourly Observations for August 31, 2016

Temp ( °F °C ) Dew Point ( °F °C ) Humidity (%) Winds ( mph kmh ) Pressure ( in mb ) Visibility ( mi km ) Precip ( " mm )
12:53 am 00:53 Clear 85 29.4 44 6.7 24 24 WNW 3 6 29.83 1010 10 16.0934 0 0
1:53 am 01:53 Clear 83 28.3 43 6.1 24 24 Calm 29.82 1010 10 16.0934 0 0
2:53 am 02:53 Clear 82 27.8 44 6.7 26 26 NW 6 9 29.82 1010 10 16.0934 0 0
3:53 am 03:53 Clear 81 27.2 44 6.7 27 27 WNW 6 9 29.82 1010 10 16.0934 0 0
4:53 am 04:53 Clear 80 26.7 45 7.2 29 29 WNW 6 9 29.83 1010 10 16.0934 0 0
5:53 am 05:53 Clear 79 26.1 43 6.1 28 28 NW 5 7 29.84 1011 10 16.0934 0 0
6:53 am 06:53 Sunny 78 25.6 43 6.1 29 29 NNW 6 9 29.86 1011 10 16.0934 0 0
7:53 am 07:53 Sunny 83 28.3 45 7.2 26 26 Calm 29.88 1012 10 16.0934 0 0
8:53 am 08:53 Sunny 90 32.2 42 5.6 19 19 Calm 29.87 1012 10 16.0934 0 0
9:53 am 09:53 Sunny 94 34.4 42 5.6 17 17 VRB 7 11 29.88 1012 10 16.0934 0 0
10:53 am 10:53 Sunny 95 35 42 5.6 16 16 SE 7 11 29.88 1012 10 16.0934 0 0
11:53 am 11:53 Sunny 98 36.7 43 6.1 15 15 ESE 7 11 29.86 1011 10 16.0934 0 0
12:53 pm 12:53 Sunny 101 38.3 41 5 13 13 SSE 9 15 29.83 1010 10 16.0934 0 0
1:53 pm 13:53 Sunny 104 40 41 5 12 12 SE 16 26 29.8 1009 10 16.0934 0 0
2:53 pm 14:53 Sunny 102 38.9 42 5.6 13 13 ESE 13 20 29.79 1009 10 16.0934 0 0
3:53 pm 15:53 Sunny 102 38.9 41 5 12 12 SSE 9 15 29.77 1008 10 16.0934 0 0
4:53 pm 16:53 Sunny 103 39.4 40 4.4 11 11 SSE 15 24 29.76 1008 10 16.0934 0 0
5:53 pm 17:53 Sunny 102 38.9 43 6.1 13 13 S 14 22 29.76 1008 10 16.0934 0 0
6:53 pm 18:53 Sunny 100 37.8 43 6.1 14 14 S 15 24 29.76 1008 10 16.0934 0 0
7:53 pm 19:53 Clear 97 36.1 44 6.7 16 16 SSE 9 15 29.77 1008 10 16.0934 0 0
8:53 pm 20:53 Clear 96 35.6 44 6.7 17 17 SSW 7 11 29.79 1009 10 16.0934 0 0
9:53 pm 21:53 Clear 94 34.4 46 7.8 19 19 S 9 15 29.79 1009 10 16.0934 0 0
10:53 pm 22:53 Clear 93 33.9 45 7.2 19 19 SSW 7 11 29.8 1009 10 16.0934 0 0
11:53 pm 23:53 Clear 90 32.2 47 8.3 23 23 NW 7 11 29.82 1010 10 16.0934 0 0

Powered by AerisWeather